| time (UTC) | temp F | wind direction | speed MPH | gust MPH | rain 1hr in | rain 24hr in | rain mn in | humidity % | barometer mb |
| 20260901210039 | 96 | 224 | 5.0 | 12.0 | 0.00 | 0.00 | 0.00 | 48 | 1011.7 |
| 20260901205534 | 96 | 205 | 6.0 | 14.0 | 0.00 | 0.00 | 0.00 | 48 | 1011.8 |
| 20260901205050 | 96 | 229 | 7.0 | 14.0 | 0.00 | 0.00 | 0.00 | 48 | 1011.8 |
| 20260901204546 | 96 | 200 | 5.0 | 11.0 | 0.00 | 0.00 | 0.00 | 48 | 1012.0 |
| 20260901204042 | 96 | 200 | 4.0 | 12.0 | 0.00 | 0.00 | 0.00 | 46 | 1012.0 |
| 20260901203537 | 96 | 139 | 5.0 | 12.0 | 0.00 | 0.00 | 0.00 | 49 | 1012.1 |
| 20260901203034 | 96 | 209 | 6.0 | 11.0 | 0.00 | 0.00 | 0.00 | 48 | 1012.1 |
| 20260901202549 | 96 | 198 | 6.0 | 14.0 | 0.00 | 0.00 | 0.00 | 48 | 1012.3 |
| 20260901202045 | 96 | 187 | 5.0 | 14.0 | 0.00 | 0.00 | 0.00 | 49 | 1012.3 |
| 20260901201541 | 96 | 219 | 5.0 | 10.0 | 0.00 | 0.00 | 0.00 | 48 | 1012.3 |
| 20260901201058 | 96 | 252 | 5.0 | 10.0 | 0.00 | 0.00 | 0.00 | 48 | 1012.3 |
| 20260901200608 | 96 | 234 | 5.0 | 11.0 | 0.00 | 0.00 | 0.00 | 47 | 1012.3 |
| 20260901200045 | 96 | 212 | 6.0 | 11.0 | 0.00 | 0.00 | 0.00 | 48 | 1012.5 |
| 20260901195540 | 97 | 205 | 4.0 | 12.0 | 0.00 | 0.00 | 0.00 | 47 | 1012.5 |
| 20260901195055 | 96 | 198 | 3.0 | 12.0 | 0.00 | 0.00 | 0.00 | 50 | 1012.5 |
| 20260901194550 | 96 | 195 | 3.0 | 9.0 | 0.00 | 0.00 | 0.00 | 49 | 1012.5 |
| 20260901194046 | 96 | 219 | 4.0 | 11.0 | 0.00 | 0.00 | 0.00 | 48 | 1012.6 |
| 20260901193543 | 96 | 165 | 6.0 | 11.0 | 0.00 | 0.00 | 0.00 | 48 | 1012.6 |
| 20260901193038 | 96 | 197 | 5.0 | 12.0 | 0.00 | 0.00 | 0.00 | 50 | 1012.7 |
| 20260901192534 | 95 | 188 | 5.0 | 12.0 | 0.00 | 0.00 | 0.00 | 50 | 1012.8 |
| 20260901192034 | 95 | 184 | 3.0 | 7.0 | 0.00 | 0.00 | 0.00 | 49 | 1012.8 |
| 20260901191607 | 95 | 201 | 2.0 | 8.0 | 0.00 | 0.00 | 0.00 | 50 | 1012.9 |
| 20260901191105 | 94 | 210 | 3.0 | 11.0 | 0.00 | 0.00 | 0.00 | 49 | 1013.0 |
| 20260901190553 | 94 | 143 | 4.0 | 11.0 | 0.00 | 0.00 | 0.00 | 49 | 1013.0 |
| 20260901190051 | 94 | 228 | 3.0 | 9.0 | 0.00 | 0.00 | 0.00 | 51 | 1012.9 |
| 20260901185546 | 94 | 229 | 3.0 | 9.0 | 0.00 | 0.00 | 0.00 | 50 | 1013.0 |
| 20260901185041 | 94 | 198 | 4.0 | 8.0 | 0.00 | 0.00 | 0.00 | 52 | 1012.9 |
| 20260901184557 | 93 | 212 | 2.0 | 5.0 | 0.00 | 0.00 | 0.00 | 54 | 1012.9 |
| 20260901184031 | 93 | 203 | 2.0 | 10.0 | 0.00 | 0.00 | 0.00 | 50 | 1013.0 |
| 20260901183549 | 93 | 207 | 4.0 | 9.0 | 0.00 | 0.00 | 0.00 | 52 | 1013.0 |
| 20260901183045 | 93 | 178 | 2.0 | 4.0 | 0.00 | 0.00 | 0.00 | 54 | 1013.1 |
| 20260901182540 | 93 | 174 | 2.0 | 4.0 | 0.00 | 0.00 | 0.00 | 52 | 1013.1 |
| 20260901182036 | 93 | 175 | 2.0 | 4.0 | 0.00 | 0.00 | 0.00 | 52 | 1013.1 |
| 20260901181534 | 93 | 187 | 2.0 | 4.0 | 0.00 | 0.00 | 0.00 | 51 | 1013.2 |
| 20260901181050 | 92 | 202 | 2.0 | 8.0 | 0.00 | 0.00 | 0.00 | 53 | 1013.4 |
| 20260901180553 | 91 | 205 | 3.0 | 8.0 | 0.00 | 0.00 | 0.00 | 55 | 1013.4 |
| 20260901180032 | 90 | 176 | 3.0 | 8.0 | 0.00 | 0.00 | 0.00 | 54 | 1013.4 |
| 20260901175542 | 90 | 136 | 3.0 | 5.0 | 0.00 | 0.00 | 0.00 | 54 | 1013.5 |
| 20260901175034 | 90 | 199 | 2.0 | 7.0 | 0.00 | 0.00 | 0.00 | 55 | 1013.5 |
| 20260901174531 | 89 | 149 | 2.0 | 7.0 | 0.00 | 0.00 | 0.00 | 56 | 1013.5 |
| 20260901174050 | 89 | 177 | 2.0 | 7.0 | 0.00 | 0.00 | 0.00 | 56 | 1013.7 |
| 20260901173547 | 89 | 200 | 3.0 | 11.0 | 0.00 | 0.00 | 0.00 | 56 | 1013.6 |
| 20260901173044 | 89 | 195 | 4.0 | 11.0 | 0.00 | 0.00 | 0.00 | 56 | 1013.8 |
| 20260901172541 | 88 | 143 | 3.0 | 9.0 | 0.00 | 0.00 | 0.00 | 55 | 1013.8 |
| 20260901172101 | 88 | 195 | 5.0 | 9.0 | 0.00 | 0.00 | 0.00 | 56 | 1013.8 |
| 20260901171542 | 88 | 203 | 4.0 | 8.0 | 0.00 | 0.00 | 0.00 | 59 | 1013.8 |
| 20260901171100 | 88 | 169 | 3.0 | 8.0 | 0.00 | 0.00 | 0.00 | 59 | 1013.9 |
| 20260901170609 | 87 | 148 | 4.0 | 8.0 | 0.00 | 0.00 | 0.00 | 58 | 1013.8 |
| 20260901170044 | 87 | 167 | 3.0 | 6.0 | 0.00 | 0.00 | 0.00 | 59 | 1013.9 |
| 20260901165542 | 86 | 153 | 2.0 | 6.0 | 0.00 | 0.00 | 0.00 | 60 | 1013.9 |
| 20260901165039 | 86 | 212 | 3.0 | 7.0 | 0.00 | 0.00 | 0.00 | 60 | 1013.9 |
| 20260901164557 | 86 | 189 | 2.0 | 9.0 | 0.00 | 0.00 | 0.00 | 60 | 1014.0 |
| 20260901164033 | 85 | 192 | 4.0 | 9.0 | 0.00 | 0.00 | 0.00 | 62 | 1014.0 |
| 20260901163551 | 85 | 180 | 2.0 | 8.0 | 0.00 | 0.00 | 0.00 | 60 | 1014.0 |
| 20260901163110 | 85 | 194 | 4.0 | 8.0 | 0.00 | 0.00 | 0.00 | 60 | 1014.1 |
| 20260901162610 | 85 | 193 | 2.0 | 5.0 | 0.00 | 0.00 | 0.00 | 61 | 1014.1 |
| 20260901162046 | 85 | 179 | 2.0 | 5.0 | 0.00 | 0.00 | 0.00 | 63 | 1014.2 |
| 20260901161545 | 84 | 186 | 1.0 | 5.0 | 0.00 | 0.00 | 0.00 | 62 | 1014.2 |
| 20260901161042 | 84 | 188 | 2.0 | 7.0 | 0.00 | 0.00 | 0.00 | 62 | 1014.3 |
| 20260901160610 | 84 | 193 | 4.0 | 7.0 | 0.00 | 0.00 | 0.00 | 62 | 1014.2 |
| 20260901160048 | 83 | 236 | 2.0 | 5.0 | 0.00 | 0.00 | 0.00 | 61 | 1014.1 |
| 20260901155547 | 83 | 190 | 2.0 | 6.0 | 0.00 | 0.00 | 0.00 | 65 | 1014.0 |
| 20260901155045 | 83 | 195 | 4.0 | 6.0 | 0.00 | 0.00 | 0.00 | 62 | 1014.0 |
| 20260901154544 | 83 | 178 | 2.0 | 6.0 | 0.00 | 0.00 | 0.00 | 62 | 1014.0 |
| 20260901154042 | 83 | 204 | 3.0 | 6.0 | 0.00 | 0.00 | 0.00 | 62 | 1014.0 |
| 20260901153543 | 83 | 220 | 1.0 | 7.0 | 0.00 | 0.00 | 0.00 | 63 | 1013.9 |
| 20260901153104 | 83 | 185 | 3.0 | 7.0 | 0.00 | 0.00 | 0.00 | 63 | 1013.9 |
| 20260901152539 | 82 | 228 | 1.0 | 5.0 | 0.00 | 0.00 | 0.00 | 63 | 1013.9 |
| 20260901152041 | 82 | 226 | 2.0 | 5.0 | 0.00 | 0.00 | 0.00 | 63 | 1013.8 |
| 20260901151538 | 82 | 203 | 2.0 | 5.0 | 0.00 | 0.00 | 0.00 | 65 | 1013.9 |
| 20260901151036 | 81 | 190 | 2.0 | 5.0 | 0.00 | 0.00 | 0.00 | 65 | 1013.9 |
| 20260901150608 | 81 | 188 | 2.0 | 6.0 | 0.00 | 0.00 | 0.00 | 64 | 1013.9 |
| 20260901150048 | 81 | 193 | 3.0 | 6.0 | 0.00 | 0.00 | 0.00 | 66 | 1013.9 |
| 20260901145546 | 81 | 196 | 3.0 | 6.0 | 0.00 | 0.00 | 0.00 | 65 | 1013.9 |
| 20260901145044 | 81 | 195 | 2.0 | 5.0 | 0.00 | 0.00 | 0.00 | 66 | 1014.0 |
| 20260901144541 | 81 | 193 | 3.0 | 5.0 | 0.00 | 0.00 | 0.00 | 67 | 1014.0 |
| 20260901144039 | 81 | 184 | 2.0 | 6.0 | 0.00 | 0.00 | 0.00 | 68 | 1014.1 |
| 20260901143536 | 80 | 188 | 3.0 | 6.0 | 0.00 | 0.00 | 0.00 | 69 | 1014.0 |
| 20260901143053 | 80 | 175 | 2.0 | 5.0 | 0.00 | 0.00 | 0.00 | 69 | 1014.2 |
| 20260901142550 | 80 | 226 | 1.0 | 7.0 | 0.00 | 0.00 | 0.00 | 70 | 1014.3 |
| 20260901142047 | 79 | 176 | 2.0 | 7.0 | 0.00 | 0.00 | 0.00 | 69 | 1014.2 |
| 20260901141545 | 79 | 190 | 2.0 | 6.0 | 0.00 | 0.00 | 0.00 | 69 | 1014.2 |
| 20260901141043 | 79 | 188 | 3.0 | 6.0 | 0.00 | 0.00 | 0.00 | 69 | 1014.1 |
| 20260901140550 | 79 | 191 | 3.0 | 6.0 | 0.00 | 0.00 | 0.00 | 69 | 1014.1 |
| 20260901140033 | 79 | 184 | 1.0 | 6.0 | 0.00 | 0.00 | 0.00 | 69 | 1014.2 |
| 20260901135532 | 79 | 185 | 2.0 | 7.0 | 0.00 | 0.00 | 0.00 | 69 | 1014.2 |
| 20260901135048 | 79 | 184 | 3.0 | 7.0 | 0.00 | 0.00 | 0.00 | 68 | 1014.2 |
| 20260901134547 | 79 | 198 | 2.0 | 5.0 | 0.00 | 0.00 | 0.00 | 69 | 1014.2 |
| 20260901134044 | 79 | 187 | 1.0 | 4.0 | 0.00 | 0.00 | 0.00 | 68 | 1014.3 |
| 20260901133543 | 79 | 186 | 2.0 | 4.0 | 0.00 | 0.00 | 0.00 | 69 | 1014.2 |
| 20260901133040 | 79 | 186 | 2.0 | 4.0 | 0.00 | 0.00 | 0.00 | 69 | 1014.2 |
| 20260901132538 | 79 | 185 | 2.0 | 4.0 | 0.00 | 0.00 | 0.00 | 70 | 1014.3 |
| 20260901132035 | 78 | 188 | 2.0 | 4.0 | 0.00 | 0.00 | 0.00 | 70 | 1014.3 |
| 20260901131533 | 78 | 196 | 0.0 | 3.0 | 0.00 | 0.00 | 0.00 | 71 | 1014.4 |
| 20260901131030 | 78 | 195 | 0.0 | 3.0 | 0.00 | 0.00 | 0.00 | 71 | 1014.3 |
| 20260901130558 | 77 | 195 | 0.0 | 3.0 | 0.00 | 0.00 | 0.00 | 72 | 1014.2 |
| 20260901130037 | 77 | 193 | 0.0 | 1.0 | 0.00 | 0.00 | 0.00 | 72 | 1014.3 |
| 20260901125555 | 77 | 194 | 0.0 | 0.0 | 0.00 | 0.00 | 0.00 | 73 | 1014.2 |
| 20260901125031 | 76 | 194 | 0.0 | 0.0 | 0.00 | 0.00 | 0.00 | 74 | 1014.1 |
| 20260901124550 | 76 | 194 | 0.0 | 0.0 | 0.00 | 0.00 | 0.00 | 74 | 1014.1 |
| 20260901124047 | 76 | 194 | 0.0 | 0.0 | 0.00 | 0.00 | 0.00 | 74 | 1014.1 |
| 20260901123545 | 76 | 193 | 0.0 | 0.0 | 0.00 | 0.00 | 0.00 | 74 | 1014.0 |
| 20260901123106 | 76 | 199 | 0.0 | 0.0 | 0.00 | 0.00 | 0.00 | 75 | 1013.9 |
| 20260901122605 | 76 | 199 | 0.0 | 0.0 | 0.00 | 0.00 | 0.00 | 75 | 1014.0 |
| 20260901122039 | 76 | 199 | 0.0 | 0.0 | 0.00 | 0.00 | 0.00 | 76 | 1013.7 |
| 20260901121541 | 76 | 199 | 0.0 | 0.0 | 0.00 | 0.00 | 0.00 | 76 | 1013.7 |
| 20260901121037 | 76 | 199 | 0.0 | 0.0 | 0.00 | 0.00 | 0.00 | 76 | 1013.5 |
| 20260901120609 | 76 | 199 | 0.0 | 0.0 | 0.00 | 0.00 | 0.00 | 77 | 1013.6 |
| 20260901120045 | 76 | 199 | 0.0 | 0.0 | 0.00 | 0.00 | 0.00 | 77 | 1013.7 |
| 20260901115544 | 76 | 199 | 0.0 | 0.0 | 0.00 | 0.00 | 0.00 | 77 | 1013.5 |
| 20260901115101 | 76 | 199 | 0.0 | 0.0 | 0.00 | 0.00 | 0.00 | 78 | 1013.5 |
| 20260901114558 | 76 | 199 | 0.0 | 0.0 | 0.00 | 0.00 | 0.00 | 78 | 1013.6 |
| 20260901114034 | 76 | 199 | 0.0 | 0.0 | 0.00 | 0.00 | 0.00 | 78 | 1013.5 |
| 20260901113533 | 76 | 199 | 0.0 | 0.0 | 0.00 | 0.00 | 0.00 | 78 | 1013.6 |
| 20260901113032 | 77 | 199 | 0.0 | 0.0 | 0.00 | 0.00 | 0.00 | 78 | 1013.6 |
| 20260901112549 | 77 | 199 | 0.0 | 0.0 | 0.00 | 0.00 | 0.00 | 78 | 1013.6 |
| 20260901112047 | 77 | 199 | 0.0 | 0.0 | 0.00 | 0.00 | 0.00 | 77 | 1013.6 |
| 20260901111544 | 77 | 199 | 0.0 | 2.0 | 0.00 | 0.00 | 0.00 | 76 | 1013.6 |
| 20260901111043 | 77 | 199 | 1.0 | 3.0 | 0.00 | 0.00 | 0.00 | 76 | 1013.6 |
| 20260901110550 | 77 | 199 | 2.0 | 3.0 | 0.00 | 0.00 | 0.00 | 76 | 1013.7 |
| 20260901110050 | 77 | 199 | 1.0 | 3.0 | 0.00 | 0.00 | 0.00 | 76 | 1013.6 |
| 20260901105547 | 77 | 200 | 0.0 | 2.0 | 0.00 | 0.00 | 0.00 | 78 | 1013.6 |
| 20260901105044 | 77 | 200 | 1.0 | 3.0 | 0.00 | 0.00 | 0.00 | 78 | 1013.5 |
| 20260901104547 | 77 | 200 | 1.0 | 4.0 | 0.00 | 0.00 | 0.00 | 78 | 1013.6 |
| 20260901104044 | 77 | 215 | 2.0 | 4.0 | 0.00 | 0.00 | 0.00 | 78 | 1013.7 |
| 20260901103544 | 77 | 216 | 1.0 | 3.0 | 0.00 | 0.00 | 0.00 | 80 | 1013.8 |
| 20260901103041 | 77 | 216 | 1.0 | 3.0 | 0.00 | 0.00 | 0.00 | 80 | 1013.7 |
| 20260901102539 | 77 | 216 | 0.0 | 3.0 | 0.00 | 0.00 | 0.00 | 80 | 1013.7 |
| 20260901102037 | 77 | 216 | 1.0 | 3.0 | 0.00 | 0.00 | 0.00 | 80 | 1013.7 |
| 20260901101535 | 77 | 219 | 1.0 | 2.0 | 0.00 | 0.00 | 0.00 | 80 | 1013.8 |
| 20260901101032 | 78 | 219 | 0.0 | 2.0 | 0.00 | 0.00 | 0.00 | 80 | 1013.8 |
| 20260901100604 | 78 | 219 | 0.0 | 2.0 | 0.00 | 0.00 | 0.00 | 79 | 1013.9 |
| 20260901100040 | 78 | 219 | 0.0 | 2.0 | 0.00 | 0.00 | 0.00 | 79 | 1014.0 |
| 20260901095538 | 78 | 219 | 1.0 | 3.0 | 0.00 | 0.00 | 0.00 | 79 | 1013.9 |
| 20260901095035 | 78 | 219 | 0.0 | 2.0 | 0.00 | 0.00 | 0.00 | 79 | 1014.0 |
| 20260901094532 | 78 | 219 | 1.0 | 2.0 | 0.00 | 0.00 | 0.00 | 80 | 1014.1 |
| 20260901094031 | 78 | 262 | 0.0 | 0.0 | 0.00 | 0.00 | 0.00 | 80 | 1013.9 |
| 20260901093531 | 78 | 262 | 0.0 | 0.0 | 0.00 | 0.00 | 0.00 | 80 | 1013.9 |
| 20260901093049 | 78 | 262 | 0.0 | 0.0 | 0.00 | 0.00 | 0.00 | 80 | 1013.9 |
| 20260901092547 | 78 | 262 | 0.0 | 1.0 | 0.00 | 0.00 | 0.00 | 80 | 1013.9 |
| 20260901092044 | 78 | 262 | 0.0 | 1.0 | 0.00 | 0.00 | 0.00 | 80 | 1013.9 |
| 20260901091541 | 78 | 262 | 0.0 | 2.0 | 0.00 | 0.00 | 0.00 | 80 | 1013.9 |
| 20260901091038 | 78 | 262 | 1.0 | 2.0 | 0.00 | 0.00 | 0.00 | 80 | 1014.0 |
| 20260901090611 | 78 | 263 | 1.0 | 2.0 | 0.00 | 0.00 | 0.00 | 81 | 1014.0 |
| 20260901090109 | 78 | 264 | 0.0 | 1.0 | 0.00 | 0.00 | 0.00 | 82 | 1014.0 |
| 20260901085545 | 77 | 264 | 1.0 | 1.0 | 0.00 | 0.00 | 0.00 | 83 | 1014.0 |
| 20260901085044 | 77 | 264 | 0.0 | 1.0 | 0.00 | 0.00 | 0.00 | 84 | 1014.0 |
| 20260901084600 | 77 | 264 | 0.0 | 2.0 | 0.00 | 0.00 | 0.00 | 84 | 1013.9 |
| 20260901084037 | 76 | 264 | 1.0 | 2.0 | 0.00 | 0.00 | 0.00 | 86 | 1013.9 |
| 20260901083534 | 76 | 264 | 0.0 | 0.0 | 0.00 | 0.00 | 0.00 | 87 | 1013.9 |
| 20260901083053 | 76 | 264 | 0.0 | 0.0 | 0.00 | 0.00 | 0.00 | 87 | 1013.8 |
| 20260901082549 | 75 | 264 | 0.0 | 0.0 | 0.00 | 0.00 | 0.00 | 88 | 1013.8 |
| 20260901082048 | 75 | 264 | 0.0 | 0.0 | 0.00 | 0.00 | 0.00 | 88 | 1013.8 |
| 20260901081545 | 75 | 264 | 0.0 | 1.0 | 0.00 | 0.00 | 0.00 | 89 | 1013.8 |
| 20260901081105 | 75 | 264 | 0.0 | 1.0 | 0.00 | 0.00 | 0.00 | 88 | 1013.8 |
| 20260901080552 | 75 | 264 | 0.0 | 1.0 | 0.00 | 0.00 | 0.00 | 88 | 1013.9 |
| 20260901080031 | 75 | 264 | 0.0 | 0.0 | 0.00 | 0.00 | 0.00 | 88 | 1013.9 |
| 20260901075549 | 75 | 264 | 0.0 | 0.0 | 0.00 | 0.00 | 0.00 | 88 | 1013.9 |
| 20260901075047 | 75 | 264 | 0.0 | 0.0 | 0.00 | 0.00 | 0.00 | 88 | 1014.0 |
| 20260901074547 | 75 | 264 | 0.0 | 0.0 | 0.00 | 0.00 | 0.00 | 88 | 1013.9 |
| 20260901074108 | 75 | 264 | 0.0 | 0.0 | 0.00 | 0.00 | 0.00 | 88 | 1013.8 |
| 20260901073547 | 76 | 264 | 0.0 | 0.0 | 0.00 | 0.00 | 0.00 | 88 | 1013.9 |
| 20260901073107 | 76 | 264 | 0.0 | 0.0 | 0.00 | 0.00 | 0.00 | 87 | 1013.9 |
| 20260901072544 | 76 | 264 | 0.0 | 0.0 | 0.00 | 0.00 | 0.00 | 87 | 1013.9 |
| 20260901072100 | 76 | 264 | 0.0 | 2.0 | 0.00 | 0.00 | 0.00 | 87 | 1013.9 |
| 20260901071556 | 76 | 264 | 1.0 | 2.0 | 0.00 | 0.00 | 0.00 | 86 | 1013.9 |
| 20260901071033 | 76 | 264 | 0.0 | 0.0 | 0.00 | 0.00 | 0.00 | 86 | 1013.9 |
| 20260901070606 | 77 | 264 | 0.0 | 2.0 | 0.00 | 0.00 | 0.00 | 86 | 1014.0 |
| 20260901070044 | 77 | 264 | 0.0 | 0.0 | 0.00 | 0.00 | 0.00 | 85 | 1014.0 |
| 20260901065540 | 77 | 264 | 0.0 | 1.0 | 0.00 | 0.00 | 0.00 | 85 | 1014.0 |
| 20260901065120 | 77 | 264 | 0.0 | 1.0 | 0.00 | 0.00 | 0.00 | 84 | 1014.0 |
| 20260901064533 | 78 | 264 | 0.0 | 1.0 | 0.00 | 0.00 | 0.00 | 84 | 1014.0 |
| 20260901064032 | 78 | 264 | 0.0 | 0.0 | 0.00 | 0.00 | 0.00 | 83 | 1014.0 |
| 20260901063550 | 78 | 264 | 0.0 | 0.0 | 0.00 | 0.00 | 0.00 | 83 | 1013.9 |
| 20260901063109 | 79 | 264 | 0.0 | 1.0 | 0.00 | 0.00 | 0.00 | 82 | 1014.0 |
| 20260901062546 | 79 | 264 | 0.0 | 1.0 | 0.00 | 0.00 | 0.00 | 82 | 1014.0 |
| 20260901062044 | 79 | 264 | 0.0 | 1.0 | 0.00 | 0.00 | 0.00 | 82 | 1014.0 |
| 20260901061543 | 79 | 264 | 0.0 | 1.0 | 0.00 | 0.00 | 0.00 | 82 | 1014.1 |
| 20260901061041 | 78 | 264 | 0.0 | 1.0 | 0.00 | 0.00 | 0.00 | 83 | 1014.1 |
| 20260901060550 | 78 | 264 | 0.0 | 1.0 | 0.00 | 0.00 | 0.00 | 83 | 1014.2 |
| 20260901060027 | 78 | 264 | 0.0 | 0.0 | 0.00 | 0.00 | 0.00 | 84 | 1014.2 |
| 20260901055539 | 78 | 264 | 0.0 | 1.0 | 0.00 | 0.00 | 0.00 | 84 | 1014.2 |
| 20260901055040 | 78 | 264 | 0.0 | 1.0 | 0.00 | 0.00 | 0.00 | 84 | 1014.2 |
| 20260901054536 | 78 | 264 | 0.0 | 2.0 | 0.00 | 0.00 | 0.00 | 84 | 1014.2 |
| 20260901054033 | 78 | 264 | 1.0 | 2.0 | 0.00 | 0.00 | 0.00 | 84 | 1014.1 |
| 20260901053529 | 78 | 264 | 1.0 | 1.0 | 0.00 | 0.00 | 0.00 | 84 | 1014.2 |
| 20260901053042 | 78 | 264 | 0.0 | 1.0 | 0.00 | 0.00 | 0.00 | 83 | 1014.1 |
| 20260901052538 | 78 | 264 | 0.0 | 1.0 | 0.00 | 0.00 | 0.00 | 83 | 1014.3 |
| 20260901052035 | 78 | 264 | 0.0 | 0.0 | 0.00 | 0.00 | 0.00 | 84 | 1014.3 |
| 20260901051550 | 78 | 264 | 0.0 | 0.0 | 0.00 | 0.00 | 0.00 | 84 | 1014.4 |
| 20260901051046 | 78 | 264 | 0.0 | 0.0 | 0.00 | 0.00 | 0.00 | 84 | 1014.4 |
| 20260901050550 | 78 | 264 | 0.0 | 0.0 | 0.00 | 0.00 | 0.00 | 83 | 1014.4 |
| 20260901050117 | 78 | 264 | 0.0 | 0.0 | 0.00 | 0.00 | 0.00 | 83 | 1014.4 |
| 20260901045544 | 78 | 264 | 0.0 | 1.0 | 0.00 | 0.00 | 0.00 | 82 | 1014.4 |
| 20260901045039 | 79 | 264 | 0.0 | 1.0 | 0.00 | 0.00 | 0.00 | 82 | 1014.3 |
| 20260901044537 | 79 | 264 | 0.0 | 1.0 | 0.00 | 0.00 | 0.00 | 82 | 1014.3 |
| 20260901044049 | 79 | 264 | 0.0 | 0.0 | 0.00 | 0.00 | 0.00 | 81 | 1014.2 |
| 20260901043546 | 79 | 264 | 0.0 | 0.0 | 0.00 | 0.00 | 0.00 | 82 | 1014.2 |
| 20260901043042 | 79 | 264 | 0.0 | 0.0 | 0.00 | 0.00 | 0.00 | 81 | 1014.1 |
| 20260901042539 | 79 | 264 | 0.0 | 0.0 | 0.00 | 0.00 | 0.00 | 81 | 1014.2 |
| 20260901042035 | 79 | 264 | 0.0 | 1.0 | 0.00 | 0.00 | 0.00 | 80 | 1014.3 |
| 20260901041532 | 80 | 264 | 0.0 | 1.0 | 0.00 | 0.00 | 0.00 | 80 | 1014.2 |
| 20260901041047 | 80 | 264 | 0.0 | 0.0 | 0.00 | 0.00 | 0.00 | 80 | 1014.2 |
| 20260901040556 | 80 | 264 | 0.0 | 1.0 | 0.00 | 0.00 | 0.00 | 80 | 1014.2 |
| 20260901040033 | 80 | 264 | 0.0 | 0.0 | 0.00 | 0.00 | 0.00 | 79 | 1014.2 |
| 20260901035532 | 80 | 264 | 0.0 | 0.0 | 0.00 | 0.00 | 0.00 | 79 | 1014.2 |
| 20260901035134 | 80 | 264 | 0.0 | 0.0 | 0.00 | 0.00 | 0.00 | 79 | 1014.1 |
| 20260901034544 | 80 | 264 | 0.0 | 0.0 | 0.00 | 0.00 | 0.00 | 79 | 1014.1 |
| 20260901034040 | 81 | 264 | 0.0 | 0.0 | 0.00 | 0.00 | 0.00 | 79 | 1014.0 |
| 20260901033540 | 81 | 264 | 0.0 | 0.0 | 0.00 | 0.00 | 0.00 | 79 | 1014.0 |
| 20260901033035 | 81 | 264 | 0.0 | 0.0 | 0.00 | 0.00 | 0.00 | 78 | 1014.1 |
| 20260901032532 | 81 | 264 | 0.0 | 0.0 | 0.00 | 0.00 | 0.00 | 78 | 1013.9 |
| 20260901032050 | 81 | 264 | 0.0 | 0.0 | 0.00 | 0.00 | 0.00 | 77 | 1013.9 |
| 20260901031546 | 81 | 264 | 0.0 | 0.0 | 0.00 | 0.00 | 0.00 | 77 | 1013.8 |
| 20260901031042 | 81 | 264 | 0.0 | 0.0 | 0.00 | 0.00 | 0.00 | 78 | 1013.9 |
| 20260901030611 | 81 | 264 | 0.0 | 0.0 | 0.00 | 0.00 | 0.00 | 76 | 1013.9 |
| 20260901030047 | 82 | 264 | 0.0 | 0.0 | 0.00 | 0.00 | 0.00 | 76 | 1013.8 |
| 20260901025544 | 82 | 264 | 0.0 | 0.0 | 0.00 | 0.00 | 0.00 | 76 | 1013.8 |
| 20260901025038 | 82 | 264 | 0.0 | 1.0 | 0.00 | 0.00 | 0.00 | 75 | 1013.7 |
| 20260901024535 | 82 | 264 | 0.0 | 2.0 | 0.00 | 0.00 | 0.00 | 76 | 1013.7 |
| 20260901024031 | 82 | 264 | 0.0 | 1.0 | 0.00 | 0.00 | 0.00 | 76 | 1013.7 |
| 20260901023547 | 82 | 264 | 0.0 | 0.0 | 0.00 | 0.00 | 0.00 | 76 | 1013.6 |
| 20260901023043 | 82 | 264 | 0.0 | 0.0 | 0.00 | 0.00 | 0.00 | 75 | 1013.6 |
| 20260901022538 | 82 | 264 | 0.0 | 0.0 | 0.00 | 0.00 | 0.00 | 75 | 1013.7 |
| 20260901022053 | 82 | 264 | 0.0 | 2.0 | 0.00 | 0.00 | 0.00 | 75 | 1013.6 |
| 20260901021549 | 82 | 264 | 1.0 | 2.0 | 0.00 | 0.00 | 0.00 | 75 | 1013.5 |
| 20260901021111 | 82 | 264 | 1.0 | 2.0 | 0.00 | 0.00 | 0.00 | 74 | 1013.4 |
| 20260901020558 | 83 | 264 | 0.0 | 0.0 | 0.00 | 0.00 | 0.00 | 73 | 1013.4 |
| 20260901020037 | 83 | 264 | 0.0 | 0.0 | 0.00 | 0.00 | 0.00 | 73 | 1013.2 |
| 20260901015538 | 83 | 264 | 0.0 | 0.0 | 0.00 | 0.00 | 0.00 | 74 | 1013.2 |
| 20260901015037 | 83 | 264 | 0.0 | 0.0 | 0.00 | 0.00 | 0.00 | 75 | 1013.3 |
| 20260901014554 | 83 | 264 | 0.0 | 1.0 | 0.00 | 0.00 | 0.00 | 75 | 1013.2 |
| 20260901014032 | 83 | 264 | 0.0 | 1.0 | 0.00 | 0.00 | 0.00 | 75 | 1013.2 |
| 20260901013548 | 83 | 264 | 1.0 | 1.0 | 0.00 | 0.00 | 0.00 | 75 | 1013.1 |
| 20260901013046 | 84 | 264 | 0.0 | 1.0 | 0.00 | 0.00 | 0.00 | 75 | 1013.1 |
| 20260901012543 | 84 | 264 | 0.0 | 1.0 | 0.00 | 0.00 | 0.00 | 74 | 1013.1 |
| 20260901012102 | 84 | 264 | 1.0 | 1.0 | 0.00 | 0.00 | 0.00 | 73 | 1013.2 |
| 20260901011538 | 84 | 264 | 0.0 | 0.0 | 0.00 | 0.00 | 0.00 | 72 | 1013.1 |
| 20260901011056 | 84 | 264 | 0.0 | 0.0 | 0.00 | 0.00 | 0.00 | 73 | 1013.2 |
| 20260901010608 | 84 | 264 | 0.0 | 0.0 | 0.00 | 0.00 | 0.00 | 72 | 1013.2 |
| 20260901010043 | 84 | 264 | 0.0 | 1.0 | 0.00 | 0.00 | 0.00 | 72 | 1013.1 |
| 20260901005541 | 84 | 264 | 1.0 | 1.0 | 0.00 | 0.00 | 0.00 | 72 | 1013.1 |
| 20260901005039 | 85 | 264 | 0.0 | 0.0 | 0.00 | 0.00 | 0.00 | 72 | 1013.2 |
| 20260901004536 | 85 | 264 | 0.0 | 0.0 | 0.00 | 0.00 | 0.00 | 72 | 1013.3 |
| 20260901004045 | 85 | 264 | 0.0 | 0.0 | 0.00 | 0.00 | 0.00 | 71 | 1013.3 |
| 20260901003542 | 85 | 264 | 0.0 | 0.0 | 0.00 | 0.00 | 0.00 | 70 | 1013.3 |
| 20260901003100 | 85 | 264 | 0.0 | 0.0 | 0.00 | 0.00 | 0.00 | 69 | 1013.3 |
| 20260901002534 | 86 | 264 | 0.0 | 0.0 | 0.00 | 0.00 | 0.00 | 69 | 1013.3 |
| 20260901002031 | 86 | 264 | 0.0 | 0.0 | 0.00 | 0.00 | 0.00 | 69 | 1013.3 |
| 20260901001531 | 86 | 264 | 0.0 | 1.0 | 0.00 | 0.00 | 0.00 | 69 | 1013.2 |
| 20260901001048 | 87 | 264 | 0.0 | 1.0 | 0.00 | 0.00 | 0.00 | 68 | 1013.3 |
| 20260901000557 | 87 | 264 | 0.0 | 0.0 | 0.00 | 0.00 | 0.00 | 67 | 1013.4 |
| 20260901000033 | 87 | 264 | 0.0 | 1.0 | 0.00 | 0.00 | 0.00 | 66 | 1013.4 |
| 20260831235548 | 88 | 264 | 0.0 | 1.0 | 0.00 | 0.00 | 0.00 | 66 | 1013.4 |
| 20260831235044 | 88 | 264 | 0.0 | 0.0 | 0.00 | 0.00 | 0.00 | 65 | 1013.4 |
| 20260831234540 | 88 | 264 | 0.0 | 1.0 | 0.00 | 0.00 | 0.00 | 64 | 1013.4 |
| 20260831234036 | 88 | 264 | 0.0 | 2.0 | 0.00 | 0.00 | 0.00 | 64 | 1013.3 |
| 20260831233533 | 88 | 264 | 1.0 | 2.0 | 0.00 | 0.00 | 0.00 | 63 | 1013.4 |
| 20260831233049 | 88 | 264 | 1.0 | 2.0 | 0.00 | 0.00 | 0.00 | 64 | 1013.4 |
| 20260831232546 | 88 | 264 | 0.0 | 2.0 | 0.00 | 0.00 | 0.00 | 63 | 1013.4 |
| 20260831232043 | 89 | 264 | 1.0 | 2.0 | 0.00 | 0.00 | 0.00 | 63 | 1013.4 |
| 20260831231558 | 89 | 264 | 1.0 | 3.0 | 0.00 | 0.00 | 0.00 | 64 | 1013.4 |
| 20260831231034 | 89 | 264 | 1.0 | 3.0 | 0.00 | 0.00 | 0.00 | 62 | 1013.4 |
| 20260831230609 | 89 | 287 | 1.0 | 5.0 | 0.00 | 0.00 | 0.00 | 64 | 1013.4 |
| 20260831230041 | 89 | 287 | 2.0 | 5.0 | 0.00 | 0.00 | 0.00 | 63 | 1013.5 |
| 20260831225538 | 89 | 199 | 1.0 | 3.0 | 0.00 | 0.00 | 0.00 | 63 | 1013.5 |
| 20260831225034 | 89 | 198 | 2.0 | 5.0 | 0.00 | 0.00 | 0.00 | 63 | 1013.4 |
| 20260831224531 | 88 | 238 | 0.0 | 3.0 | 0.00 | 0.00 | 0.00 | 64 | 1013.4 |
| 20260831224030 | 89 | 239 | 2.0 | 3.0 | 0.00 | 0.00 | 0.00 | 64 | 1013.4 |
| 20260831223606 | 89 | 221 | 2.0 | 3.0 | 0.00 | 0.00 | 0.00 | 63 | 1013.4 |
| 20260831223044 | 89 | 222 | 2.0 | 4.0 | 0.00 | 0.00 | 0.00 | 63 | 1013.4 |
| 20260831222540 | 88 | 220 | 2.0 | 4.0 | 0.00 | 0.00 | 0.00 | 63 | 1013.4 |
| 20260831222036 | 88 | 221 | 1.0 | 4.0 | 0.00 | 0.00 | 0.00 | 63 | 1013.5 |
| 20260831221532 | 88 | 243 | 1.0 | 3.0 | 0.00 | 0.00 | 0.00 | 63 | 1013.5 |
| 20260831221048 | 88 | 276 | 1.0 | 3.0 | 0.00 | 0.00 | 0.00 | 62 | 1013.5 |
| 20260831220556 | 88 | 283 | 1.0 | 4.0 | 0.00 | 0.00 | 0.00 | 63 | 1013.4 |
| 20260831220034 | 88 | 286 | 2.0 | 5.0 | 0.00 | 0.00 | 0.00 | 63 | 1013.4 |
| 20260831215530 | 89 | 233 | 3.0 | 6.0 | 0.00 | 0.00 | 0.00 | 60 | 1013.4 |
| 20260831215046 | 89 | 218 | 3.0 | 6.0 | 0.00 | 0.00 | 0.00 | 61 | 1013.5 |
| 20260831214541 | 89 | 208 | 0.0 | 4.0 | 0.00 | 0.00 | 0.00 | 64 | 1013.5 |
| 20260831214038 | 88 | 198 | 3.0 | 5.0 | 0.00 | 0.00 | 0.00 | 63 | 1013.5 |
| 20260831213535 | 88 | 207 | 3.0 | 5.0 | 0.00 | 0.00 | 0.00 | 62 | 1013.7 |
| 20260831213032 | 88 | 217 | 3.0 | 5.0 | 0.00 | 0.00 | 0.00 | 63 | 1013.8 |
| 20260831212548 | 88 | 251 | 2.0 | 5.0 | 0.00 | 0.00 | 0.00 | 64 | 1013.7 |
| 20260831212045 | 88 | 224 | 3.0 | 5.0 | 0.00 | 0.00 | 0.00 | 62 | 1013.7 |
| 20260831211540 | 88 | 218 | 2.0 | 5.0 | 0.00 | 0.00 | 0.00 | 63 | 1013.7 |
| 20260831211040 | 88 | 219 | 2.0 | 4.0 | 0.00 | 0.00 | 0.00 | 63 | 1013.7 |
| 20260831210549 | 88 | 213 | 3.0 | 4.0 | 0.00 | 0.00 | 0.00 | 62 | 1013.7 |